sat.trackr.live / text

‹ back to catalog

STARLINK-36089

NORAD 66947 · 2025-286Y

PAYLOAD ACTIVE UNKNOWN

§ Identity

Operator
Country
US
Launch date
2025-12-07
Launch site
AFWTR
Launch vehicle
Mass (kg)
RCS (m²)

Purposes: comms

External: N2YO · Heavens-Above · Gunter

§ Orbital elements

Epoch: 2026-05-24T21:03:23.971392Z

Period
93.85 min
Inclination
53.1613°
Eccentricity
0.0000979
Mean motion
15.34395119 rev/d
Perigee alt
462.0 km
Apogee alt
463.4 km
Semi-major
6,840.9 km
B*
6.2873e-4
RAAN
4.4048°
Arg perigee
79.2064°
Mean anomaly
280.9049°
Rev number
2,708

§ Raw data

STARLINK-360891 66947U 25286Y   26144.87736078  .00020922  00000+0  62873-3 0  99912 66947  53.1613   4.4048 0000979  79.2064 280.9049 15.34395119 27086

JSON: /api/v1/satellites/66947 · /tle

For live sub-satellite position, see the globe view (requires WebGL).

§ Visibility from observer

Set your observer location to see the next 7 days of passes ≥ 10°. The values pass through the URL so the page stays shareable.

No JS? Fill the form by hand. The geolocation button needs JavaScript.